Terminal Aerodrome Forecast
Issued by NWS Huntsville, AL

Home | Current Version | Previous Version | Text Only | Print | Product List | Glossary On
Versions: 1 2 3 4 5 6 7 8 9 10 11 12 13
000
FTUS44 KHUN 171720
TAFMSL
TAF
KMSL 171720Z 1718/1818 14010KT P6SM SCT035 BKN250
     FM180000 13006KT P6SM BKN035 BKN150
     FM181200 09006KT P6SM OVC030=

USA.gov is the U.S. government's official web portal to all federal, state and local government web resources and services.